7 * 24
多渠道服务支持
DUMMY CUBESAT是韩国于2022年6月21日8时发射的一颗立方体卫星,这类微小卫星通常承担技术验证、科学实验等任务。作为韩国微小卫星研发项目的一部分,它的发射验证了韩国在小卫星制造、发射配套等方面的技术积累,也为韩国后续开展空间探测、对地观测等微小卫星任务积累了实践经验。
韩国
(KR)
| 数据来源 | 国际轨道数据 |
| 星历时间: | 2026-09-11T13:05:12+0800 10小时前 查看轨道信息 |
| 半长轴: | 7069.213km |
| 偏心率: | 0.0008832 |
| 轨道倾角: | 98.241° |
| 近地点辐角 | 112.567° |
| 升交点赤经 | 34.834° |
| 平近点角 | 247.646° |
| 近地点: | 684.832km |
| 远地点: | 697.32km |
| 周期: | 98.586分钟 |
| 每日圈数: | 14.606502 |